Location: Table Rock
(44.3339°N, 118.3154°W)
Time: 15:31:05
(UTC-07:00)

Daily predictions for brighter satellites

Satellite Brightness Start Highest point End
(mag) Time Altitude Azimuth Time Altitude Azimuth Time Altitude Azimuth
Cosmos 1356 Rocket 3.9 21:10:08 10° SSE 21:14:10 43° E 21:18:16 10° NNE
Cosmos 2100 Rocket 4.2 21:08:59 10° N 21:15:16 63° E 21:21:33 10° SSE
YAOGAN 6 2.7 21:15:02 10° SSE 21:18:41 85° W 21:22:25 10° NNW
Cosmos 2061 Rocket 4.2 21:16:20 10° N 21:22:39 60° ENE 21:28:59 10° SSE
MetOp-B 4.5 21:17:36 10° SE 21:22:47 54° ENE 21:28:00 10° N
Cosmos 1726 3.3 21:20:12 10° NNE 21:23:23 27° ENE 21:26:31 10° SE
Cosmos 2297 Rocket 3.4 21:17:57 10° SW 21:23:25 49° WNW 21:28:56 10° NNE
H-2A R/B 3.2 21:20:20 10° SE 21:24:59 31° ENE 21:29:43 10° N
Cosmos 2173 Rocket 4.1 21:18:51 10° N 21:25:00 67° E 21:31:11 10° SSE
Cosmos 1300 4.1 21:24:15 10° NNE 21:27:26 24° ENE 21:30:37 10° SE
Cosmos 1741 Rocket 4.1 21:22:44 10° SSW 21:28:04 89° WNW 21:33:24 10° NNE
RESURS DK-1 3.0 21:24:50 10° NNW 21:28:51 45° ENE 21:32:49 10° SE
Cosmos 1818 4.0 21:24:28 10° NW 21:29:50 59° WSW 21:35:08 10° SSE
Cosmos 2263 Rocket 3.7 21:29:01 10° SE 21:32:27 17° E 21:35:54 10° ENE
Cosmos 1076 Rocket 3.5 21:29:20 10° S 21:33:40 76° E 21:38:03 10° NNE
ATLAS 5 CENTAUR R/B 2.1 21:31:08 10° SW 21:35:48 72° NW 21:40:57 10° NE
Meteor 1-21 Rocket 4.2 21:30:38 10° S 21:36:16 73° E 21:41:51 10° NNE
ERBS 3.3 21:33:15 10° NW 21:36:28 39° NE 21:39:41 10° ESE
Cosmos 1408 Rocket 3.7 21:33:29 10° S 21:37:39 52° E 21:41:52 10° NNE
CZ-4B DEB 4.2 21:36:53 10° SSW 21:39:36 32° W 21:42:20 10° NNW
Tiangong 1 0.7 21:38:57 10° W 21:41:45 63° S 21:44:30 10° E
Meteor 1-29 4.2 21:41:51 10° N 21:45:09 44° WNW 21:48:26 10° SW
Cosmos 2221 3.5 21:42:02 10° NNW 21:46:16 48° W 21:50:29 10° SSW
Cosmos 1725 Rocket 4.3 21:42:21 10° N 21:48:28 52° ENE 21:54:01 12° SSE
Cosmos 1802 Rocket 4.0 21:43:43 10° N 21:49:53 88° E 21:56:03 10° S
Cosmos 2151 4.4 21:47:33 13° SE 21:50:08 21° E 21:53:24 10° NE
EO 1 Delta rocket 4.3 21:46:03 12° SE 21:50:10 46° ENE 21:54:39 10° N
Cosmos 1674 3.4 21:50:55 10° SSW 21:54:36 55° W 21:58:18 10° N
Cosmos 1500 Rocket 4.5 21:55:08 15° SSE 21:58:15 32° E 22:02:12 10° NNE
Cosmos 1603 3.7 21:53:47 10° NNW 21:59:29 89° WSW 22:04:18 14° SSE
Cosmos 1455 4.3 21:58:27 10° NE 22:00:37 14° ENE 22:02:32 11° E
Cosmos 371 Rocket 3.4 21:55:57 10° NNW 22:00:45 64° ENE 22:04:29 16° SSE
Cosmos 1814 Rocket 4.1 21:55:32 10° NNW 22:00:54 69° ENE 22:05:09 16° SSE
Abrixas rocket 2.1 22:05:56 10° WNW 22:09:12 89° S 22:11:18 20° ESE
Cosmos 1486 Rocket 4.3 22:04:50 10° S 22:09:51 47° ESE 22:14:56 10° NNE
SPOT 5 3.0 22:05:30 13° S 22:09:54 81° WSW 22:15:04 10° NNW
Lacrosse 5 2.0 22:05:01 10° NW 22:10:02 68° SW 22:13:41 19° SSE
Cosmos 841 Rocket 3.9 22:05:10 10° NNW 22:10:18 51° ENE 22:13:59 18° SE
ARGOS 3.3 22:05:45 11° S 22:10:57 74° WSW 22:16:24 10° NNW
Cosmos 1242 Rocket 4.4 22:08:09 10° NNW 22:11:24 29° W 22:14:39 10° SSW
Cosmos 1763 Rocket 3.5 22:06:46 10° NNW 22:11:53 66° ENE 22:15:31 19° SSE
Cosmos 1943 3.4 22:08:52 10° NNW 22:14:29 63° ENE 22:18:35 19° SE
Cosmos 1766 Rocket 4.1 22:10:55 10° SSW 22:15:10 57° WNW 22:19:29 10° N
SL-16 R/B 4.1 22:11:19 10° NW 22:15:46 24° WSW 22:20:11 10° SSW
Cosmos 2016 Rocket 4.2 22:09:49 10° NNW 22:16:04 71° W 22:22:11 10° S
Cosmos 1328 Rocket 3.5 22:14:28 10° N 22:18:50 88° W 22:22:02 18° S
SPOT 1/Viking Rocket 3.5 22:15:47 16° SSE 22:19:55 88° WSW 22:25:07 10° NNW
Cosmos 1151 Rocket 3.2 22:20:32 10° N 22:24:53 60° E 22:27:26 23° SSE
USA 245 4.0 22:22:12 15° S 22:24:54 47° W 22:29:04 10° NNW
Cosmos 1515 Rocket 3.5 22:20:34 10° N 22:24:55 78° E 22:27:42 22° SSE
IGS 5A 3.9 22:24:54 23° SE 22:27:10 47° ENE 22:31:11 10° N
Landsat 7 3.8 22:26:21 21° SSE 22:29:32 79° ENE 22:34:18 10° N
H-2A R/B 2.7 22:28:08 23° SE 22:30:25 42° ENE 22:34:26 10° N
Cosmos 1743 Rocket 3.5 22:27:28 14° S 22:31:12 85° W 22:35:33 10° N
Cosmos 2228 Rocket 3.4 22:29:14 10° NNW 22:33:48 68° W 22:37:05 18° S
Cosmos 1703 3.8 22:33:11 27° SSE 22:34:50 43° E 22:38:39 10° NNE
Cosmos 2233 Rocket 3.9 22:34:10 10° N 22:40:25 81° E 22:44:36 22° SSE
Terra 1.8 22:41:46 26° SSE 22:44:28 78° ENE 22:49:15 10° N
CZ-4 R/B 4.3 22:43:45 10° NNE 22:48:23 42° E 22:50:16 29° SSE
USA 234 3.2 22:42:08 10° NE 22:48:44 86° SE 22:55:17 10° SW
SME Rocket 4.1 22:51:06 24° ESE 22:52:50 35° ENE 22:57:11 10° N
Meteor 1-11 4.3 22:48:16 15° SSW 22:53:09 85° W 22:59:00 10° N
Meteor 2-12 Rocket 4.4 22:48:19 10° N 22:54:25 87° E 22:58:08 25° S
Cosmos 1626 2.0 22:53:53 35° S 22:55:23 81° E 22:59:07 10° N
Cosmos 1503 Rocket 4.0 22:52:52 24° S 22:55:54 62° ESE 23:01:01 10° NNE
Cosmos 1726 4.4 22:55:49 10° NW 22:58:31 19° W 23:01:11 10° SW
Cosmos 2058 3.0 22:57:17 25° SSW 22:59:41 77° W 23:03:56 10° N
Cosmos 304 Rocket 3.7 22:56:58 10° NNW 23:01:48 79° ENE 23:03:52 34° SSE
H-2A R/B 3.2 23:00:21 15° SSW 23:04:15 38° W 23:09:20 10° NNW
CZ-4B R/B 3.7 23:03:59 10° NNE 23:09:11 56° E 23:11:22 33° SSE
Cosmos 540 Rocket 3.4 23:05:49 10° NNW 23:11:00 82° ENE 23:13:14 35° SSE
PSLV R/B 2.8 23:12:34 84° SW 23:12:37 85° WSW 23:15:30 10° NNW
ERBS 3.9 23:10:14 10° WNW 23:12:58 23° SW 23:13:03 23° SW
Cosmos 968 Rocket 4.4 23:13:11 28° ESE 23:14:13 30° E 23:18:47 10° NE
Sich 1 3.6 23:13:51 36° ESE 23:14:41 40° E 23:18:42 10° NNE
Spot 4 3.8 23:13:21 36° SSE 23:15:23 81° ENE 23:20:17 10° NNW
Cosmos 2263 Rocket 2.4 23:10:09 10° SSW 23:15:42 72° WNW 23:21:19 10° NNE
Tiangong 1 2.8 23:14:32 10° W 23:15:40 20° WSW 23:15:40 20° WSW
deb Chang Zheng 4 3.6 23:17:48 10° NNE 23:22:11 80° WNW 23:24:10 32° SSW
COSMOS 2406 4.0 23:18:35 10° NNW 23:24:00 44° ENE 23:26:56 25° ESE
Cosmos 1707 Rocket 3.5 23:22:24 10° N 23:26:55 77° E 23:28:12 46° SSE
ALOS 2 4.1 23:25:41 21° E 23:27:10 25° ENE 23:30:46 10° NNE
Cosmos 2151 4.4 23:24:07 15° SW 23:27:13 34° WNW 23:31:10 10° N
SL-24 R/B 4.4 23:26:03 46° S 23:27:13 84° WSW 23:31:26 10° NNW
DELTA 2 DEB (DPAF) 4.1 23:26:35 44° SSE 23:27:59 88° E 23:32:30 10° NNW
Cosmos 2285 Rocket 4.1 23:21:59 10° NNW 23:28:17 68° WSW 23:31:24 31° S
BREEZE-M DEB (TANK) 3.8 23:26:00 10° WNW 23:29:06 53° NNE 23:40:19 10° E
Cosmos 2034 Rocket 4.1 23:27:09 10° N 23:33:30 70° E 23:36:19 35° SSE
Cosmos 1455 3.0 23:32:53 10° NNW 23:36:34 43° W 23:37:32 35° SW
CZ-2C R/B 3.9 23:35:01 29° SE 23:37:34 47° ENE 23:42:57 10° N
Cosmos 1891 Rocket 4.3 23:33:14 10° N 23:39:21 85° E 23:41:55 37° S
Cosmos 1666 Rocket 3.5 23:42:44 50° S 23:43:54 88° E 23:48:23 10° N
Cosmos 1933 4.2 23:41:07 10° N 23:44:57 37° ENE 23:45:33 35° E
Cosmos 1869 3.4 23:44:34 10° NNW 23:48:29 66° W 23:49:05 56° SW
Cosmos 1844 Rocket 2.9 23:47:58 41° SSE 23:49:17 49° ESE 23:54:38 10° NE
Cosmos 1862 Rocket 4.2 23:46:46 10° N 23:50:57 42° ENE 23:51:48 38° ESE
Lacrosse 5 4.1 23:50:39 10° W 23:52:08 11° WSW 23:52:53 11° SW
Cosmos 1933 Rocket 4.2 23:52:59 39° ESE 23:53:24 40° E 23:57:30 10° NNE
Cosmos 1805 Rocket 4.3 23:53:27 31° SW 23:55:05 46° WNW 23:59:17 10° N
